Regional Weather Roundup
Issued by NWS

Home | Current Version | Previous Version | Text Only | Print | Product List | Glossary Off
Versions: 1 2 3 4 5 6 7 8 9 10 11 12 13 14 15 16 17 18 19 20 21 22 23 24 25 26 27 28 29 30 31 32 33 34 35 36 37 38 39 40 41 42 43 44 45 46 47 48 49 50

000
ASUS43 KMKX 261300
RWRWI

WISCONSIN REGIONAL WEATHER ROUNDUP
NATIONAL WEATHER SERVICE MILWAUKEE/SULLIVAN WI
700 AM CST SUN FEB 26 2017

NOTE: "FAIR" INDICATES FEW OR NO CLOUDS BELOW 12,000 FEET WITH NO
SIGNIFICANT WEATHER AND/OR OBSTRUCTIONS TO VISIBILITY.

WIZ001-002-006>008-014>016-023>028-261400-
NORTHWEST WISCONSIN

CITY           SKY/WX    TMP DP  RH WIND       PRES   REMARKS
SUPERIOR ARPT  CLOUDY    26  23  88 SW5       29.67S WCI  20
ASHLAND        CLOUDY    24  18  77 SW10      29.67F WCI  14
HAYWARD        CLOUDY    23  17  78 S8        29.67F WCI  14
SIREN          CLOUDY    26  19  76 SW7       29.69S WCI  18
CUMBERLAND     CLOUDY    25  18  74 SW9       29.69S WCI  15
RICE LAKE      CLOUDY    24  19  80 S7        29.72S WCI  16
CHETEK         FLURRIES  24  18  78 SW7       29.72S WCI  16
LADYSMITH      FLURRIES  23  17  78 S9        29.72F WCI  13
EAU CLAIRE     NOT AVBL
MENOMONIE      MOCLDY    25  17  72 S7        29.73F WCI  18
NEW RICHMOND   CLOUDY    24  18  77 SW8       29.73R WCI  15
OSCEOLA        CLOUDY    26  19  75 SW8       29.75R WCI  18
$$

WIZ003>005-009-010-017-018-261400-
NORTH CENTRAL WISCONSIN

CITY           SKY/WX    TMP DP  RH WIND       PRES   REMARKS
MANITOWISH WTR LGT SNOW  19  18  94 S9        29.66S WCI   9
ARBOR VITAE    LGT SNOW  21  18  88 S7          N/A  WCI  13
WOODRUFF       LGT SNOW  21  18  88 S7          N/A  WCI  13
RHINELANDER    LGT SNOW  20  16  84 SW14      29.69F FOG     WCI   7
EAGLE RIVER    LGT SNOW  19  14  82 SW9       29.67F WCI   8
LAND O LAKES   LGT SNOW  18  15  88 SW6       29.68S WCI  10
PHILLIPS       LGT SNOW  21  17  84 S8        29.67F WCI  11
TOMAHAWK       LGT SNOW  19  16  86 CALM      29.72S
MEDFORD        CLOUDY    22  15  76 S13G18    29.71F WCI  10
MERRILL        NOT AVBL
$$

WIZ029-030-035-036-043>047-261400-
CENTRAL WISCONSIN

CITY           SKY/WX    TMP DP  RH WIND       PRES   REMARKS
WAUSAU         CLOUDY    23  17  78 S14       29.74F WCI  11
MOSINEE        CLOUDY    19  18  93 S10       29.77S WCI   8
MARSHFIELD     CLOUDY    22  15  75 S10       29.74F WCI  11
STEVENS POINT  CLOUDY    21  17  82 S9G16     29.79S WCI  11
WAUPACA        CLOUDY    23  19  83 S6        29.83F WCI  16
WAUTOMA        CLOUDY    21  18  88 S7        29.83F WCI  12
WISC RAPIDS    CLOUDY    23  18  81 S8        29.79F WCI  14
CAMP DOUGLAS   NOT AVBL
$$

WIZ011>013-019>022-031-037>040-048>050-261400-
NORTHEAST WISCONSIN

CITY           SKY/WX    TMP DP  RH WIND       PRES   REMARKS
ANTIGO         CLOUDY    18  15  88 SW9       29.74S WCI   7
SHAWANO        CLOUDY    24  19  80 SW3       29.81F
OCONTO         CLOUDY    21  17  83 S7        29.84F WCI  12
STURGEON BAY   CLOUDY    23  18  81 S10       29.85F WCI  12
GREEN BAY      CLOUDY    25  19  78 S9        29.84F WCI  15
MANITOWOC      NOT AVBL
APPLETON       CLOUDY    23  16  74 S12       29.82F WCI  12
CLINTONVILLE   CLOUDY    23  18  80 S7        29.81F WCI  15
OSHKOSH        CLOUDY    23  17  78 S16       29.84F WCI  10
$$

WIZ032>034-041-042-053>061-261400-
SOUTHWEST WISCONSIN

CITY           SKY/WX    TMP DP  RH WIND       PRES   REMARKS
LA CROSSE      MOCLDY    28  18  66 SE6       29.79F WCI  22
SPARTA         CLOUDY    25  18  76 SW3       29.80F
VIROQUA        CLOUDY    24  18  78 S6        29.78F WCI  17
BOSCOBEL       CLOUDY    30  18  60 S6        29.84F WCI  24
PRAIRIE DU CHI MOCLDY    31  18  59 S8        29.84S WCI  23
PLATTEVILLE    PTCLDY    29  22  74 S14       29.86S WCI  18
$$

WIZ056-057-062-063-064-067-068-261400-
SOUTH CENTRAL WISCONSIN

CITY           SKY/WX    TMP DP  RH WIND       PRES   REMARKS
REEDSBURG      CLOUDY    25  18  73 S10       29.82F WCI  15
BARABOO/DELLS  CLOUDY    25  17  73 S9        29.82F WCI  15
LONE ROCK      NOT AVBL
MINERAL POINT  MOCLDY    30  23  74 S5        29.84F WCI  25
MADISON        CLOUDY    27  18  69 S10       29.86F WCI  17
MIDDLETON      CLOUDY    28  21  74 S10       29.85F WCI  19
WATERTOWN      CLOUDY    25  19  78 S12       29.88F WCI  14
MONROE         CLOUDY    28  19  69 S20G25    29.87F WCI  15
JANESVILLE     CLOUDY    28  19  69 S12G17    29.91F WCI  18
$$

WIZ051-052-058>065-066-070>072-261400-
SOUTHEAST WISCONSIN

CITY           SKY/WX    TMP DP  RH WIND       PRES   REMARKS
MILWAUKEE      CLOUDY    27  18  69 S12       29.94F WCI  17
WAUKESHA       CLOUDY    21  16  79 S7        29.93F WCI  13
MILWAUKEE/TIMM CLOUDY    25  16  68 S9        29.95S WCI  15
RACINE         CLOUDY    27  17  66 S10       29.97F WCI  17
KENOSHA        CLOUDY    26  18  71 S12       29.96F WCI  16
FOND DU LAC    CLOUDY    25  16  68 S13       29.86F WCI  14
SHEBOYGAN      CLOUDY    23  16  74 S12       29.90F WCI  12
WEST BEND      CLOUDY    23  19  86 S5        29.90F WCI  17
JUNEAU         CLOUDY    23  18  80 SE8       29.88F WCI  14
$$

LSZ147-162-261400-
LAKE SUPERIOR

STATION/POSITION TIME  TEMP    WIND        PRES    WAVE
                       AIR SEA DIR/SP/G            HT/PER
                 (UTC) (F)     (DEG/KT/KT) (MB)    (FT/S)
DEVILS ISLAND    1200   27     210/ 16/ 20 1005.0F
PORT WING        1240   25     190/  7/ 10 1004.7S
SAXON HARBOR     1240   24     190/  8/ 15 1005.1S
$$

LMZ867-665-643>646-261400-
LAKE MICHIGAN

STATION/POSITION TIME  TEMP    WIND        PRES    WAVE
                       AIR SEA DIR/SP/G            HT/PER
                 (UTC) (F)     (DEG/KT/KT) (MB)    (FT/S)
NORTHPORT PIER   1240   24        CALM     1010.5S
SISTER BAY       1205   24        CALM       N/A
KEWAUNEE LAKESHO 1230   24     200/  9/ 11 1011.5F
SHEBOYGAN LAKESH 1200   23     210/ 10/ 12 1014.2F
PORT WASHINGTON  1230   25     200/  7/ 10 1014.6F
MILWAUKEE LAKESH 1230   27     200/ 14/ 16   N/A
KENOSHA   LAKESH 1200   26     190/ 11/ 13 1015.2
$$

TC  - TEMPERATURE IN CELSIUS
VSB - VISIBILITY IN STATUTE MILES
WCI - WIND CHILL INDEX
HX  - HEAT INDEX





USA.gov is the U.S. government's official web portal to all federal, state and local government web resources and services.